TimeEDT,TemperatureF,Dew PointF,Humidity,Sea Level PressureIn,VisibilityMPH,Wind Direction,Wind SpeedMPH,Gust SpeedMPH,PrecipitationIn,Events,Conditions,WindDirDegrees,DateUTC
12:15 AM,37.4,12.2,36,30.20,10.0,NNE,8.1,-,N/A,,Overcast,20,2013-04-12 04:15:00
12:35 AM,37.4,14.0,38,30.20,10.0,NNE,6.9,-,N/A,,Overcast,30,2013-04-12 04:35:00
12:55 AM,37.4,15.8,41,30.22,10.0,NNE,12.7,17.3,N/A,,Scattered Clouds,30,2013-04-12 04:55:00
1:15 AM,37.4,14.0,38,30.22,10.0,NNE,9.2,-,N/A,,Scattered Clouds,30,2013-04-12 05:15:00
1:35 AM,37.4,15.8,41,30.22,10.0,NE,11.5,-,N/A,,Overcast,40,2013-04-12 05:35:00
2:15 AM,35.6,12.2,38,30.21,10.0,NE,12.7,17.3,N/A,,Overcast,50,2013-04-12 06:15:00
2:35 AM,35.6,14.0,41,30.22,10.0,NNE,10.4,17.3,N/A,,Overcast,30,2013-04-12 06:35:00
2:55 AM,35.6,14.0,41,30.22,10.0,NNE,10.4,18.4,N/A,,Overcast,30,2013-04-12 06:55:00
3:16 AM,35.6,14.0,41,30.22,10.0,NNE,10.4,-,N/A,,Overcast,30,2013-04-12 07:16:00
3:35 AM,35.6,15.8,44,30.23,10.0,NNE,8.1,-,N/A,,Overcast,30,2013-04-12 07:35:00
3:55 AM,35.6,15.8,44,30.23,10.0,NNE,8.1,-,N/A,,Mostly Cloudy,30,2013-04-12 07:55:00
4:15 AM,35.6,15.8,44,30.24,10.0,NNE,10.4,-,N/A,,Mostly Cloudy,30,2013-04-12 08:15:00
4:35 AM,35.6,15.8,44,30.24,10.0,NNE,10.4,16.1,N/A,,Overcast,30,2013-04-12 08:35:00
4:55 AM,35.6,15.8,44,30.23,10.0,NE,11.5,-,N/A,,Overcast,40,2013-04-12 08:55:00
5:35 AM,35.6,15.8,44,30.24,10.0,NNE,8.1,-,N/A,,Overcast,30,2013-04-12 09:35:00
5:55 AM,35.6,17.6,48,30.25,10.0,NNE,5.8,-,N/A,,Overcast,20,2013-04-12 09:55:00
6:35 AM,35.6,15.8,44,30.25,10.0,NE,8.1,-,N/A,,Scattered Clouds,40,2013-04-12 10:35:00
6:55 AM,35.6,17.6,48,30.24,10.0,NE,11.5,17.3,N/A,,Partly Cloudy,40,2013-04-12 10:55:00
7:15 AM,35.6,17.6,48,30.25,10.0,NE,9.2,-,N/A,,Partly Cloudy,40,2013-04-12 11:15:00
7:35 AM,35.6,17.6,48,30.25,10.0,NE,8.1,-,N/A,,Mostly Cloudy,50,2013-04-12 11:35:00
7:55 AM,35.6,17.6,48,30.25,10.0,NE,10.4,-,N/A,,Mostly Cloudy,50,2013-04-12 11:55:00
8:15 AM,35.6,17.6,48,30.25,10.0,NE,10.4,-,N/A,,Mostly Cloudy,50,2013-04-12 12:15:00
8:35 AM,35.6,19.4,52,30.24,10.0,NE,10.4,-,N/A,,Overcast,50,2013-04-12 12:35:00
8:55 AM,35.6,19.4,52,30.22,10.0,NE,9.2,-,N/A,,Overcast,40,2013-04-12 12:55:00
9:15 AM,35.6,19.4,52,30.22,10.0,NE,10.4,-,N/A,,Overcast,50,2013-04-12 13:15:00
9:35 AM,35.6,23.0,60,30.21,10.0,ENE,8.1,-,N/A,,Overcast,60,2013-04-12 13:35:00
9:55 AM,35.6,21.2,56,30.20,10.0,ENE,8.1,-,N/A,,Overcast,70,2013-04-12 13:55:00
10:15 AM,35.6,19.4,52,30.20,10.0,ENE,8.1,-,N/A,,Overcast,60,2013-04-12 14:15:00
10:55 AM,37.4,21.2,52,30.21,10.0,East,6.9,-,N/A,,Overcast,80,2013-04-12 14:55:00
11:15 AM,37.4,21.2,52,30.20,10.0,ENE,8.1,-,N/A,,Overcast,60,2013-04-12 15:15:00
11:35 AM,37.4,23.0,56,30.17,10.0,East,10.4,-,N/A,,Overcast,80,2013-04-12 15:35:00
11:55 AM,37.4,24.8,60,30.16,10.0,ENE,11.5,16.1,N/A,,Overcast,70,2013-04-12 15:55:00
12:15 PM,37.4,24.8,60,30.17,10.0,East,9.2,-,N/A,,Overcast,90,2013-04-12 16:15:00
12:35 PM,37.4,24.8,60,30.15,10.0,East,10.4,-,N/A,,Overcast,90,2013-04-12 16:35:00
12:55 PM,37.4,26.6,65,30.14,10.0,East,11.5,17.3,N/A,,Overcast,80,2013-04-12 16:55:00
1:15 PM,37.4,26.6,65,30.13,10.0,East,13.8,18.4,N/A,,Overcast,80,2013-04-12 17:15:00
1:35 PM,37.4,26.6,65,30.13,10.0,East,13.8,-,N/A,,Overcast,100,2013-04-12 17:35:00
1:55 PM,37.4,28.4,70,30.15,10.0,East,11.5,19.6,N/A,,Overcast,100,2013-04-12 17:55:00
2:15 PM,35.6,28.4,75,30.13,10.0,East,13.8,-,N/A,,Mostly Cloudy,100,2013-04-12 18:15:00
2:35 PM,35.6,32.0,87,30.12,9.0,East,12.7,-,0.02,,Mostly Cloudy,100,2013-04-12 18:35:00
2:55 PM,35.6,30.2,81,30.12,8.0,East,13.8,-,0.04,,Overcast,100,2013-04-12 18:55:00
3:15 PM,35.6,32.0,87,30.09,5.0,East,16.1,-,0.03,,Mostly Cloudy,100,2013-04-12 19:15:00
3:35 PM,35.6,32.0,87,30.08,9.0,ESE,19.6,-,0.05,,Overcast,110,2013-04-12 19:35:00
3:55 PM,35.6,28.4,75,30.04,8.0,East,18.4,24.2,0.07,,Overcast,100,2013-04-12 19:55:00
4:15 PM,35.6,30.2,81,30.09,7.0,East,13.8,19.6,0.02,,Mostly Cloudy,100,2013-04-12 20:15:00
4:35 PM,35.6,30.2,81,30.09,10.0,East,11.5,-,0.03,,Mostly Cloudy,100,2013-04-12 20:35:00
4:55 PM,35.6,30.2,81,30.08,10.0,East,11.5,-,0.03,,Overcast,90,2013-04-12 20:55:00
5:15 PM,33.8,30.2,87,30.08,10.0,East,12.7,-,0.01,,Overcast,90,2013-04-12 21:15:00
5:35 PM,33.8,30.2,87,30.07,8.0,East,16.1,-,0.01,,Overcast,90,2013-04-12 21:35:00
5:55 PM,33.8,30.2,87,30.06,7.0,ENE,12.7,17.3,0.01,,Overcast,70,2013-04-12 21:55:00
6:15 PM,33.8,32.0,93,30.06,4.0,ENE,10.4,-,0.01,,Overcast,70,2013-04-12 22:15:00
6:35 PM,33.8,32.0,93,30.06,4.0,ENE,12.7,16.1,0.01,,Overcast,70,2013-04-12 22:35:00
6:55 PM,33.8,32.0,93,30.04,5.0,East,15.0,21.9,0.02,,Overcast,90,2013-04-12 22:55:00
7:15 PM,33.8,33.8,100,30.03,3.0,ENE,12.7,-,N/A,,Overcast,70,2013-04-12 23:15:00
7:35 PM,33.8,32.0,93,30.02,3.0,East,12.7,-,0.01,,Overcast,80,2013-04-12 23:35:00
7:55 PM,33.8,32.0,93,30.01,3.0,East,10.4,18.4,0.02,,Overcast,80,2013-04-12 23:55:00
8:15 PM,33.8,32.0,93,-9999,3.0,North,-9999.0,-,0.01,,Overcast,0,2013-04-13 00:15:00
8:35 PM,33.8,33.8,100,29.99,5.0,East,15.0,19.6,0.03,,Overcast,80,2013-04-13 00:35:00
8:55 PM,33.8,33.8,100,29.98,10.0,ENE,15.0,20.7,0.04,,Overcast,70,2013-04-13 00:55:00
9:15 PM,33.8,33.8,100,29.98,8.0,ENE,15.0,-,0.01,,Overcast,70,2013-04-13 01:15:00
9:35 PM,33.8,33.8,100,29.97,5.0,ENE,16.1,24.2,0.01,,Overcast,70,2013-04-13 01:35:00
9:55 PM,33.8,33.8,100,29.95,6.0,ENE,13.8,-,0.01,,Overcast,60,2013-04-13 01:55:00
10:15 PM,33.8,33.8,100,29.95,5.0,ENE,17.3,21.9,0.01,,Overcast,60,2013-04-13 02:15:00
10:35 PM,35.6,33.8,93,29.94,5.0,ENE,16.1,20.7,0.01,,Overcast,70,2013-04-13 02:35:00
10:55 PM,35.6,33.8,93,29.92,6.0,ENE,15.0,-,0.01,,Overcast,70,2013-04-13 02:55:00
11:15 PM,33.8,33.8,100,29.92,6.0,ENE,18.4,23.0,N/A,,Overcast,70,2013-04-13 03:15:00
11:35 PM,35.6,33.8,93,29.91,8.0,ENE,15.0,-,N/A,,Overcast,70,2013-04-13 03:35:00
11:55 PM,33.8,32.0,93,29.89,6.0,ENE,15.0,18.4,0.01,,Overcast,70,2013-04-13 03:55:00